PAL407 RJBB-RPLL

Flight info

Callsign PAL407
Flight time N/A
Altitude 34000
Route KRE V53 SUC B597 RURIK/N0460F360 B597 ONC Y579 SAKON DCT POLIO POLIO5R
Aircraft A320/M-SDE3FGHIRWY/LB1

Departure

Time 2026-04-29 02:53
Airport Kansai International Airport (RJBB)

Arrival

Time N/A
Airport Ninoy Aquino International Airport (RPLL)
Time Latitude Longitude Altitude Speed Heading
2026-04-29 02:43 34.43805 135.22908 30 ft 0 kts 142°
2026-04-29 02:44 34.43808 135.22905 30 ft 4 kts 142°
2026-04-29 02:44 34.43829 135.22886 31 ft 4 kts 143°
2026-04-29 02:44 34.43851 135.22867 31 ft 4 kts 147°
2026-04-29 02:44 34.43870 135.22854 31 ft 2 kts 163°
2026-04-29 02:45 34.43882 135.22851 30 ft 2 kts 191°
2026-04-29 02:45 34.43893 135.22855 30 ft 2 kts 220°
2026-04-29 02:45 34.43901 135.22864 31 ft 2 kts 230°
2026-04-29 02:45 34.43908 135.22875 31 ft 2 kts 232°
2026-04-29 02:46 34.43911 135.22880 30 ft 0 kts 233°
2026-04-29 02:48 34.43907 135.22873 30 ft 3 kts 231°
2026-04-29 02:48 34.43890 135.22848 30 ft 4 kts 230°
2026-04-29 02:48 34.43840 135.22773 32 ft 19 kts 231°
2026-04-29 02:48 34.43750 135.22635 30 ft 14 kts 236°
2026-04-29 02:49 34.43787 135.22544 30 ft 13 kts 322°
2026-04-29 02:49 34.43845 135.22481 30 ft 10 kts 301°
2026-04-29 02:49 34.43816 135.22393 32 ft 17 kts 231°
2026-04-29 02:49 34.43719 135.22255 29 ft 24 kts 229°
2026-04-29 02:50 34.43616 135.22091 29 ft 25 kts 232°
2026-04-29 02:50 34.43505 135.21929 27 ft 26 kts 231°
2026-04-29 02:50 34.43391 135.21769 31 ft 25 kts 229°
2026-04-29 02:50 34.43286 135.21601 31 ft 25 kts 230°
2026-04-29 02:51 34.43171 135.21435 29 ft 27 kts 230°
2026-04-29 02:51 34.43050 135.21258 27 ft 28 kts 232°
2026-04-29 02:51 34.42925 135.21070 23 ft 29 kts 230°
2026-04-29 02:51 34.42800 135.20883 24 ft 29 kts 234°
2026-04-29 02:52 34.42764 135.20732 28 ft 11 kts 325°
2026-04-29 02:52 34.42823 135.20684 25 ft 10 kts 323°
2026-04-29 02:52 34.42894 135.20672 23 ft 14 kts 49°
2026-04-29 02:52 34.42988 135.20819 24 ft 42 kts 52°
2026-04-29 02:53 34.43322 135.21313 29 ft 107 kts 51°
2026-04-29 02:53 34.43911 135.22186 30 ft 158 kts 51°
2026-04-29 02:53 34.44684 135.23333 242 ft 181 kts 49°
2026-04-29 02:53 34.45670 135.24249 931 ft 180 kts 16°
2026-04-29 02:54 34.46886 135.24125 1533 ft 180 kts 330°
2026-04-29 02:54 34.47822 135.23074 1874 ft 196 kts 300°
2026-04-29 02:54 34.48221 135.21451 2139 ft 213 kts 267°
2026-04-29 02:54 34.48024 135.19569 2374 ft 237 kts 261°
2026-04-29 02:55 34.47760 135.17504 2790 ft 256 kts 261°
2026-04-29 02:55 34.47485 135.15343 3532 ft 262 kts 261°
2026-04-29 02:55 34.47093 135.13179 4321 ft 265 kts 245°
2026-04-29 02:55 34.45917 135.11483 5056 ft 269 kts 212°
2026-04-29 02:56 34.44271 135.10393 5864 ft 271 kts 207°
2026-04-29 02:56 34.42574 135.09359 6637 ft 274 kts 206°
2026-04-29 02:56 34.40853 135.08331 7401 ft 277 kts 206°
2026-04-29 02:56 34.39115 135.07293 8143 ft 281 kts 206°
2026-04-29 02:57 34.37375 135.06250 8868 ft 284 kts 206°
2026-04-29 02:57 34.35602 135.05181 9579 ft 287 kts 207°
2026-04-29 02:57 34.33805 135.04091 10286 ft 290 kts 207°
2026-04-29 02:57 34.31997 135.02988 10971 ft 293 kts 207°
2026-04-29 02:58 34.30128 135.01845 11311 ft 311 kts 207°
2026-04-29 02:58 34.28210 135.00455 11446 ft 333 kts 218°
2026-04-29 02:58 34.26514 134.98469 11813 ft 345 kts 229°
2026-04-29 02:58 34.24937 134.96251 12403 ft 350 kts 229°
2026-04-29 02:59 34.23330 134.94020 13030 ft 354 kts 229°
2026-04-29 02:59 34.21705 134.91776 13644 ft 357 kts 229°
2026-04-29 02:59 34.20062 134.89509 14241 ft 360 kts 229°
2026-04-29 02:59 34.18394 134.87211 14826 ft 363 kts 229°
2026-04-29 03:00 34.16738 134.84928 15393 ft 366 kts 229°
2026-04-29 03:00 34.15052 134.82603 15957 ft 370 kts 229°
2026-04-29 03:00 34.13354 134.80260 16502 ft 373 kts 229°
2026-04-29 03:00 34.11641 134.77895 17037 ft 376 kts 229°
2026-04-29 03:01 34.09914 134.75512 17559 ft 379 kts 229°
2026-04-29 03:01 34.08169 134.73114 18073 ft 382 kts 229°
2026-04-29 03:01 34.06410 134.70698 18580 ft 385 kts 229°
2026-04-29 03:01 34.04637 134.68264 19065 ft 388 kts 229°
2026-04-29 03:02 34.02852 134.65810 19575 ft 391 kts 229°
2026-04-29 03:02 34.01054 134.63338 20064 ft 394 kts 229°
2026-04-29 03:02 33.99244 134.60847 20561 ft 396 kts 229°
2026-04-29 03:02 33.97420 134.58344 21038 ft 399 kts 229°
2026-04-29 03:03 33.95576 134.55820 21499 ft 402 kts 229°
2026-04-29 03:03 33.93721 134.53286 21957 ft 405 kts 229°
2026-04-29 03:03 33.91852 134.50733 22398 ft 408 kts 229°
2026-04-29 03:03 33.90178 134.48026 22797 ft 410 kts 239°
2026-04-29 03:04 33.88800 134.45001 23198 ft 413 kts 242°
2026-04-29 03:04 33.87446 134.41943 23590 ft 415 kts 242°
2026-04-29 03:04 33.86081 134.38867 23971 ft 418 kts 242°
2026-04-29 03:04 33.84703 134.35772 24347 ft 420 kts 242°
2026-04-29 03:05 33.83320 134.32672 24710 ft 423 kts 242°
2026-04-29 03:05 33.81922 134.29546 25055 ft 425 kts 242°
2026-04-29 03:05 33.80517 134.26409 25383 ft 427 kts 242°
2026-04-29 03:05 33.79105 134.23255 25708 ft 429 kts 242°
2026-04-29 03:06 33.77721 134.20164 26016 ft 431 kts 242°
2026-04-29 03:06 33.76295 134.16981 26337 ft 434 kts 242°
2026-04-29 03:06 33.74861 134.13784 26643 ft 436 kts 242°
2026-04-29 03:06 33.73420 134.10577 26937 ft 438 kts 242°
2026-04-29 03:07 33.71968 134.07348 27246 ft 440 kts 242°
2026-04-29 03:07 33.70509 134.04107 27525 ft 442 kts 241°
2026-04-29 03:07 33.69068 134.00906 27796 ft 443 kts 242°
2026-04-29 03:07 33.67598 133.97643 28062 ft 445 kts 241°
2026-04-29 03:08 33.66119 133.94367 28337 ft 447 kts 241°
2026-04-29 03:08 33.64631 133.91076 28589 ft 449 kts 241°
2026-04-29 03:08 33.63137 133.87778 28825 ft 451 kts 241°
2026-04-29 03:08 33.61641 133.84472 29065 ft 452 kts 241°
2026-04-29 03:09 33.60142 133.81157 29294 ft 454 kts 241°
2026-04-29 03:09 33.58633 133.77824 29517 ft 455 kts 241°
2026-04-29 03:09 33.57117 133.74482 29732 ft 457 kts 241°
2026-04-29 03:09 33.55538 133.71161 29940 ft 458 kts 236°
2026-04-29 03:10 33.53598 133.68133 30137 ft 460 kts 227°
2026-04-29 03:10 33.51276 133.65503 30320 ft 461 kts 218°
2026-04-29 03:10 33.48724 133.63247 30488 ft 462 kts 216°
2026-04-29 03:10 33.46116 133.60984 30652 ft 464 kts 216°
2026-04-29 03:11 33.43508 133.58717 30859 ft 463 kts 216°
2026-04-29 03:11 33.40901 133.56445 31096 ft 463 kts 216°
2026-04-29 03:11 33.38299 133.54180 31323 ft 462 kts 216°
2026-04-29 03:11 33.35701 133.51918 31547 ft 462 kts 216°
2026-04-29 03:12 33.33102 133.49656 31769 ft 461 kts 216°
2026-04-29 03:12 33.30512 133.47393 31988 ft 461 kts 216°
2026-04-29 03:12 33.27933 133.45136 32211 ft 460 kts 216°
2026-04-29 03:12 33.25348 133.42873 32429 ft 460 kts 216°
2026-04-29 03:13 33.22766 133.40614 32647 ft 459 kts 216°
2026-04-29 03:13 33.20193 133.38368 32856 ft 459 kts 216°
2026-04-29 03:13 33.17643 133.36149 33061 ft 458 kts 216°
2026-04-29 03:13 33.15065 133.33913 33267 ft 458 kts 216°
2026-04-29 03:14 33.12491 133.31680 33469 ft 458 kts 216°
2026-04-29 03:14 33.09916 133.29445 33665 ft 457 kts 216°
2026-04-29 03:14 33.07346 133.27213 33871 ft 457 kts 216°
2026-04-29 03:14 33.04781 133.24983 33987 ft 457 kts 216°
2026-04-29 03:15 33.02214 133.22746 34011 ft 456 kts 216°
2026-04-29 03:15 32.97103 133.18291 34010 ft 455 kts 216°
2026-04-29 03:16 32.91984 133.13845 34010 ft 455 kts 216°
2026-04-29 03:16 32.86904 133.09444 34010 ft 455 kts 216°
2026-04-29 03:17 32.81787 133.05019 34010 ft 455 kts 216°
2026-04-29 03:17 32.76667 133.00591 34011 ft 455 kts 216°
2026-04-29 03:18 32.71623 132.96049 34008 ft 455 kts 219°
2026-04-29 03:18 32.66737 132.91286 34007 ft 455 kts 220°
2026-04-29 03:19 32.61857 132.86491 34006 ft 455 kts 219°
2026-04-29 03:19 32.56952 132.81771 34003 ft 454 kts 219°
2026-04-29 03:20 32.52022 132.77083 34001 ft 454 kts 219°
2026-04-29 03:20 32.47124 132.72427 34001 ft 454 kts 219°
2026-04-29 03:21 32.42196 132.67741 34000 ft 455 kts 219°
2026-04-29 03:21 32.37265 132.63051 34001 ft 455 kts 219°
2026-04-29 03:22 32.32330 132.58367 34003 ft 455 kts 219°
2026-04-29 03:22 32.27384 132.53684 34006 ft 455 kts 219°
2026-04-29 03:23 32.22476 132.49033 34008 ft 455 kts 219°
2026-04-29 03:23 32.17531 132.44358 34009 ft 455 kts 219°
2026-04-29 03:24 32.12590 132.39696 34007 ft 455 kts 219°
2026-04-29 03:24 32.07645 132.35040 34007 ft 455 kts 218°
2026-04-29 03:25 32.02694 132.30395 34009 ft 455 kts 218°
2026-04-29 03:25 31.97738 132.25748 34011 ft 455 kts 218°
2026-04-29 03:26 31.92777 132.21109 34013 ft 455 kts 218°
2026-04-29 03:26 31.87815 132.16468 34010 ft 455 kts 218°
2026-04-29 03:27 31.82898 132.11863 34012 ft 455 kts 218°
2026-04-29 03:27 31.77948 132.07237 34009 ft 455 kts 218°
2026-04-29 03:28 31.72988 132.02618 34009 ft 455 kts 218°
2026-04-29 03:28 31.68032 131.98003 34008 ft 455 kts 218°
2026-04-29 03:29 31.63076 131.93385 34008 ft 455 kts 218°
2026-04-29 03:29 31.58117 131.88781 34007 ft 455 kts 218°
2026-04-29 03:30 31.53191 131.84205 34006 ft 455 kts 218°
2026-04-29 03:30 31.48224 131.79608 34005 ft 455 kts 218°
2026-04-29 03:31 31.40762 131.72717 34010 ft 455 kts 218°
2026-04-29 03:31 31.35790 131.68138 34012 ft 455 kts 218°
2026-04-29 03:32 31.30811 131.63548 34012 ft 455 kts 218°
2026-04-29 03:32 31.25832 131.58970 34013 ft 455 kts 218°
2026-04-29 03:33 31.20884 131.54431 34010 ft 455 kts 218°
2026-04-29 03:33 31.15898 131.49846 34012 ft 455 kts 218°
2026-04-29 03:34 31.10936 131.45288 34014 ft 455 kts 218°
2026-04-29 03:34 31.05928 131.40705 34012 ft 455 kts 218°
2026-04-29 03:35 31.00978 131.36182 34012 ft 455 kts 218°
2026-04-29 03:35 30.95991 131.31630 34010 ft 455 kts 218°
2026-04-29 03:36 30.91848 131.27851 34009 ft 455 kts 218°
2026-04-29 03:36 30.86872 131.23309 34010 ft 455 kts 218°
2026-04-29 03:37 30.81887 131.18772 34008 ft 455 kts 218°
2026-04-29 03:37 30.76902 131.14237 34012 ft 455 kts 218°
2026-04-29 03:38 30.71909 131.09714 34014 ft 455 kts 218°
2026-04-29 03:38 30.66936 131.05225 34014 ft 455 kts 218°
2026-04-29 03:39 30.61940 131.00717 34016 ft 455 kts 218°
2026-04-29 03:39 30.56524 130.96916 34016 ft 455 kts 207°
2026-04-29 03:40 30.50906 130.93530 34015 ft 455 kts 207°
2026-04-29 03:40 30.45285 130.90135 34018 ft 455 kts 207°
2026-04-29 03:41 30.39674 130.86743 34012 ft 455 kts 207°
2026-04-29 03:41 30.34055 130.83351 34009 ft 455 kts 207°
2026-04-29 03:42 30.28474 130.79993 34011 ft 455 kts 207°
2026-04-29 03:42 30.22833 130.76611 34008 ft 455 kts 207°
2026-04-29 03:43 30.17217 130.73239 34011 ft 455 kts 207°
2026-04-29 03:43 30.11627 130.69890 34007 ft 455 kts 207°
2026-04-29 03:44 30.06007 130.66524 34009 ft 455 kts 207°
2026-04-29 03:44 30.00391 130.63169 34007 ft 455 kts 207°
2026-04-29 03:45 29.94771 130.59816 34007 ft 455 kts 207°
2026-04-29 03:45 29.89149 130.56465 34002 ft 454 kts 207°
2026-04-29 03:46 29.83537 130.53125 34004 ft 454 kts 207°
2026-04-29 03:46 29.77919 130.49791 34002 ft 454 kts 207°
2026-04-29 03:47 29.72295 130.46452 34001 ft 454 kts 207°
2026-04-29 03:47 29.66675 130.43115 34000 ft 454 kts 207°
2026-04-29 03:48 29.61055 130.39786 34003 ft 455 kts 207°
2026-04-29 03:48 29.55432 130.36463 34004 ft 455 kts 207°
2026-04-29 03:49 29.49847 130.33169 34003 ft 454 kts 207°
2026-04-29 03:49 29.44214 130.29850 34001 ft 454 kts 207°
2026-04-29 03:50 29.38600 130.26543 33999 ft 454 kts 207°
2026-04-29 03:50 29.32981 130.23233 33999 ft 454 kts 207°
2026-04-29 03:51 29.27359 130.19932 34000 ft 454 kts 207°
2026-04-29 03:51 29.21724 130.16629 34001 ft 454 kts 207°
2026-04-29 03:52 29.16097 130.13337 34000 ft 454 kts 207°
2026-04-29 03:52 29.10511 130.10065 34000 ft 454 kts 207°
2026-04-29 03:53 29.04885 130.06768 34001 ft 454 kts 207°
2026-04-29 03:53 28.99255 130.03482 34002 ft 454 kts 207°
2026-04-29 03:54 28.93627 130.00209 34002 ft 454 kts 207°
2026-04-29 03:54 28.87991 129.96928 34000 ft 454 kts 207°
2026-04-29 03:55 28.82364 129.93652 34002 ft 454 kts 207°
2026-04-29 03:55 28.76732 129.90378 34002 ft 454 kts 207°
2026-04-29 03:56 28.71100 129.87112 33999 ft 454 kts 207°
2026-04-29 03:56 28.65505 129.83871 34000 ft 454 kts 207°
2026-04-29 03:57 28.59871 129.80604 34002 ft 454 kts 207°
2026-04-29 03:57 28.54231 129.77354 33999 ft 454 kts 207°
2026-04-29 03:58 28.48595 129.74106 34002 ft 454 kts 207°
2026-04-29 03:58 28.43084 129.70607 34003 ft 454 kts 217°
2026-04-29 03:59 28.38315 129.65900 34003 ft 454 kts 222°
2026-04-29 03:59 28.33615 129.61116 34001 ft 454 kts 221°
2026-04-29 04:00 28.28933 129.56378 34002 ft 454 kts 221°
2026-04-29 04:00 28.24212 129.51604 34004 ft 455 kts 221°
2026-04-29 04:01 28.19488 129.46833 34007 ft 455 kts 221°
2026-04-29 04:01 28.14767 129.42051 34010 ft 455 kts 222°
2026-04-29 04:02 28.10057 129.37260 34010 ft 455 kts 222°
2026-04-29 04:02 28.05353 129.32477 34010 ft 455 kts 222°
2026-04-29 04:03 28.00677 129.27732 34009 ft 455 kts 222°
2026-04-29 04:03 27.95954 129.22963 34009 ft 454 kts 221°
2026-04-29 04:04 27.91235 129.18201 34006 ft 454 kts 221°
2026-04-29 04:04 27.86523 129.13449 34004 ft 454 kts 221°
2026-04-29 04:05 27.81813 129.08700 34004 ft 454 kts 222°
2026-04-29 04:05 27.77101 129.03935 34004 ft 454 kts 222°
2026-04-29 04:06 27.72394 128.99172 34003 ft 454 kts 222°
2026-04-29 04:06 27.67718 128.94452 34002 ft 454 kts 221°
2026-04-29 04:07 27.63005 128.89703 34002 ft 454 kts 221°
2026-04-29 04:07 27.58291 128.84958 34001 ft 454 kts 221°
2026-04-29 04:08 27.53573 128.80224 34001 ft 454 kts 221°
2026-04-29 04:08 27.48859 128.75492 33998 ft 454 kts 221°
2026-04-29 04:09 27.44145 128.70767 33996 ft 454 kts 220°
2026-04-29 04:09 27.38934 128.66783 33995 ft 453 kts 212°
2026-04-29 04:10 27.33605 128.62985 33995 ft 454 kts 212°
2026-04-29 04:10 27.28270 128.59174 33998 ft 454 kts 212°
2026-04-29 04:11 27.22973 128.55394 34000 ft 454 kts 212°
2026-04-29 04:11 27.17640 128.51593 33999 ft 454 kts 212°
2026-04-29 04:12 27.12295 128.47798 34001 ft 454 kts 212°
2026-04-29 04:12 27.06955 128.44004 34003 ft 454 kts 212°
2026-04-29 04:13 27.01616 128.40212 34003 ft 454 kts 212°
2026-04-29 04:13 26.96270 128.36428 34003 ft 454 kts 212°
2026-04-29 04:14 26.90955 128.32666 34006 ft 455 kts 212°
2026-04-29 04:14 26.85612 128.28883 34007 ft 455 kts 212°
2026-04-29 04:15 26.80263 128.25098 34009 ft 455 kts 212°
2026-04-29 04:15 26.74910 128.21319 34010 ft 455 kts 212°
2026-04-29 04:16 26.69550 128.17541 34011 ft 455 kts 212°
2026-04-29 04:16 26.64195 128.13768 34009 ft 455 kts 212°
2026-04-29 04:17 26.58839 128.10004 34010 ft 455 kts 212°
2026-04-29 04:17 26.53490 128.06244 34010 ft 455 kts 212°
2026-04-29 04:18 26.48130 128.02489 34011 ft 455 kts 212°
2026-04-29 04:18 26.42771 127.98737 34009 ft 454 kts 212°
2026-04-29 04:19 26.37453 127.95006 34006 ft 454 kts 212°
2026-04-29 04:19 26.32100 127.91254 34006 ft 454 kts 212°
2026-04-29 04:20 26.26748 127.87518 34003 ft 454 kts 212°
2026-04-29 04:20 26.21385 127.83781 34004 ft 454 kts 212°
2026-04-29 04:21 26.16008 127.80078 34002 ft 454 kts 208°
2026-04-29 04:21 26.10351 127.76934 34003 ft 454 kts 206°
2026-04-29 04:22 26.04679 127.73815 34002 ft 454 kts 206°
2026-04-29 04:22 25.99055 127.70722 34002 ft 455 kts 206°
2026-04-29 04:23 25.93384 127.67609 34006 ft 455 kts 206°
2026-04-29 04:23 25.87694 127.64491 34009 ft 455 kts 206°
2026-04-29 04:24 25.81992 127.61372 34011 ft 455 kts 206°
2026-04-29 04:24 25.76362 127.58293 34010 ft 455 kts 206°
2026-04-29 04:25 25.70644 127.55167 34008 ft 454 kts 206°
2026-04-29 04:25 25.65020 127.52089 34005 ft 454 kts 206°
2026-04-29 04:26 25.59348 127.48992 34003 ft 454 kts 206°
2026-04-29 04:26 25.53674 127.45912 34002 ft 454 kts 206°
2026-04-29 04:27 25.49602 127.43700 34002 ft 458 kts 206°
2026-04-29 04:27 25.43820 127.40557 34003 ft 466 kts 206°
2026-04-29 04:28 25.38000 127.37395 34008 ft 471 kts 206°
2026-04-29 04:28 25.32087 127.34187 34007 ft 475 kts 206°
2026-04-29 04:29 25.26136 127.30964 34010 ft 477 kts 206°
2026-04-29 04:29 25.20162 127.27728 34007 ft 479 kts 206°
2026-04-29 04:30 25.14203 127.24501 34010 ft 481 kts 206°
2026-04-29 04:31 25.05172 127.19624 34009 ft 483 kts 206°
2026-04-29 04:31 24.99125 127.16364 34009 ft 484 kts 206°
2026-04-29 04:32 24.93054 127.13099 34010 ft 486 kts 206°
2026-04-29 04:32 24.86974 127.09824 34009 ft 487 kts 206°
2026-04-29 04:33 24.80910 127.06563 34377 ft 480 kts 206°
2026-04-29 04:33 24.77931 127.04961 34684 ft 474 kts 206°
2026-04-29 04:33 24.74988 127.03379 34983 ft 468 kts 206°
2026-04-29 04:33 24.72075 127.01814 35291 ft 464 kts 206°
2026-04-29 04:34 24.69194 127.00266 35600 ft 459 kts 206°
2026-04-29 04:34 24.66375 126.98752 35911 ft 455 kts 206°
2026-04-29 04:34 24.63545 126.97232 36232 ft 451 kts 206°
2026-04-29 04:34 24.60742 126.95727 36567 ft 446 kts 206°
2026-04-29 04:35 24.57964 126.94236 36907 ft 441 kts 206°
2026-04-29 04:35 24.55224 126.92766 37261 ft 436 kts 206°
2026-04-29 04:35 24.52514 126.91312 37620 ft 431 kts 206°
2026-04-29 04:35 24.49834 126.89875 37984 ft 425 kts 206°
2026-04-29 04:36 24.47201 126.88463 38351 ft 418 kts 206°
2026-04-29 04:36 24.44601 126.87070 38719 ft 411 kts 206°
2026-04-29 04:36 24.42051 126.85704 39084 ft 404 kts 206°
2026-04-29 04:36 24.39557 126.84369 39440 ft 396 kts 206°
2026-04-29 04:37 24.37108 126.83058 39786 ft 387 kts 206°
2026-04-29 04:37 24.34723 126.81782 40116 ft 377 kts 206°
2026-04-29 04:37 24.32418 126.80549 40321 ft 371 kts 206°
2026-04-29 04:37 24.30086 126.79303 40212 ft 375 kts 206°
2026-04-29 04:38 24.27710 126.78034 39913 ft 384 kts 206°
2026-04-29 04:38 24.25300 126.76747 39806 ft 386 kts 206°
2026-04-29 04:38 24.22902 126.75466 40006 ft 379 kts 206°
2026-04-29 04:38 24.20553 126.74213 40239 ft 373 kts 206°
2026-04-29 04:39 24.18225 126.72972 40208 ft 374 kts 206°
2026-04-29 04:39 24.15865 126.71713 39963 ft 381 kts 206°
2026-04-29 04:39 24.13463 126.70433 39821 ft 385 kts 206°
2026-04-29 04:39 24.11068 126.69157 39932 ft 381 kts 206°
2026-04-29 04:40 24.08709 126.67901 40149 ft 374 kts 206°
2026-04-29 04:40 24.04056 126.65426 40013 ft 379 kts 206°
2026-04-29 04:40 24.01664 126.64153 39842 ft 383 kts 206°
2026-04-29 04:41 23.99270 126.62881 39887 ft 381 kts 206°
2026-04-29 04:41 23.96902 126.61622 40068 ft 376 kts 206°
2026-04-29 04:41 23.94561 126.60379 40162 ft 373 kts 206°
2026-04-29 04:41 23.92214 126.59133 40039 ft 377 kts 206°
2026-04-29 04:42 23.90645 126.58300 39929 ft 381 kts 206°
2026-04-29 04:42 23.85074 126.55345 40014 ft 377 kts 206°
2026-04-29 04:43 23.80381 126.52859 40063 ft 376 kts 206°
2026-04-29 04:43 23.76432 126.50768 39870 ft 382 kts 206°
2026-04-29 04:44 23.70924 126.47854 40090 ft 375 kts 206°
2026-04-29 04:44 23.67015 126.45788 40006 ft 378 kts 206°
2026-04-29 04:44 23.64642 126.44535 39900 ft 381 kts 206°
2026-04-29 04:45 23.62261 126.43278 39915 ft 380 kts 206°
2026-04-29 04:45 23.59891 126.42027 40023 ft 376 kts 206°
2026-04-29 04:45 23.57540 126.40786 40088 ft 375 kts 206°
2026-04-29 04:46 23.52818 126.38297 39932 ft 380 kts 206°
2026-04-29 04:46 23.48064 126.35792 40000 ft 377 kts 206°
2026-04-29 04:47 23.43358 126.33316 40039 ft 376 kts 206°
2026-04-29 04:47 23.38619 126.30824 39928 ft 380 kts 206°
2026-04-29 04:48 23.33886 126.28337 40057 ft 376 kts 206°
2026-04-29 04:48 23.29199 126.25877 39993 ft 378 kts 206°
2026-04-29 04:49 23.24448 126.23387 39923 ft 381 kts 204°
2026-04-29 04:49 23.21955 126.22291 39572 ft 391 kts 194°
2026-04-29 04:49 23.19327 126.21571 39650 ft 387 kts 189°
2026-04-29 04:49 23.16649 126.21072 39096 ft 401 kts 192°
2026-04-29 04:50 23.13852 126.20358 37765 ft 422 kts 197°
2026-04-29 04:50 23.11023 126.19289 36438 ft 440 kts 206°
2026-04-29 04:50 23.08563 126.17387 36119 ft 433 kts 225°
2026-04-29 04:51 23.04275 126.12683 35788 ft 443 kts 225°
2026-04-29 04:51 23.02113 126.10309 34948 ft 447 kts 225°
2026-04-29 04:51 22.99879 126.07909 34281 ft 449 kts 220°
2026-04-29 04:51 22.97318 126.05976 34057 ft 451 kts 207°
2026-04-29 04:52 22.94507 126.04446 33993 ft 452 kts 206°
2026-04-29 04:52 22.88910 126.01374 34009 ft 454 kts 207°
2026-04-29 04:53 22.83276 125.98252 34009 ft 455 kts 207°
2026-04-29 04:53 22.77639 125.95149 34009 ft 455 kts 207°
2026-04-29 04:54 22.71997 125.92050 34010 ft 455 kts 207°
2026-04-29 04:54 22.66352 125.88962 34011 ft 455 kts 207°
2026-04-29 04:55 22.60710 125.85867 34013 ft 455 kts 207°
2026-04-29 04:55 22.55057 125.82775 34013 ft 455 kts 207°
2026-04-29 04:56 22.49440 125.79707 34014 ft 455 kts 207°
2026-04-29 04:56 22.43789 125.76614 34014 ft 455 kts 207°
2026-04-29 04:57 22.38132 125.73518 34019 ft 455 kts 207°
2026-04-29 04:57 22.32472 125.70435 34022 ft 455 kts 207°
2026-04-29 04:58 22.26813 125.67364 34020 ft 455 kts 207°
2026-04-29 04:58 22.21188 125.64303 34018 ft 455 kts 207°
2026-04-29 04:59 22.15528 125.61215 34025 ft 456 kts 207°
2026-04-29 04:59 22.09875 125.58138 34026 ft 456 kts 207°
2026-04-29 05:00 22.04206 125.55067 34022 ft 456 kts 207°
2026-04-29 05:00 21.98546 125.51998 34030 ft 456 kts 207°
2026-04-29 05:01 21.92881 125.48925 34023 ft 455 kts 207°
2026-04-29 05:01 21.87258 125.45885 34026 ft 455 kts 207°
2026-04-29 05:02 21.81593 125.42820 34028 ft 455 kts 207°
2026-04-29 05:02 21.75929 125.39758 34026 ft 455 kts 207°
2026-04-29 05:03 21.70275 125.36697 34024 ft 455 kts 207°
2026-04-29 05:03 21.64615 125.33643 34025 ft 455 kts 207°
2026-04-29 05:04 21.58953 125.30598 34020 ft 455 kts 207°
2026-04-29 05:04 21.53300 125.27554 34020 ft 455 kts 207°
2026-04-29 05:05 21.47677 125.24529 34016 ft 455 kts 207°
2026-04-29 05:05 21.42019 125.21489 34020 ft 455 kts 206°
2026-04-29 05:06 21.36362 125.18459 34017 ft 454 kts 206°
2026-04-29 05:06 21.30705 125.15427 34016 ft 454 kts 206°
2026-04-29 05:07 21.25047 125.12386 34016 ft 454 kts 207°
2026-04-29 05:07 21.19395 125.09353 34012 ft 454 kts 206°
2026-04-29 05:08 21.13742 125.06326 34011 ft 454 kts 206°
2026-04-29 05:08 21.08120 125.03325 34012 ft 454 kts 206°
2026-04-29 05:09 21.02475 125.00311 34011 ft 454 kts 206°
2026-04-29 05:09 20.96816 124.97285 34009 ft 454 kts 206°
2026-04-29 05:10 20.91166 124.94266 34012 ft 454 kts 206°
2026-04-29 05:10 20.85501 124.91248 34014 ft 455 kts 206°
2026-04-29 05:11 20.79842 124.88238 34012 ft 454 kts 206°
2026-04-29 05:11 20.74187 124.85228 34013 ft 454 kts 206°
2026-04-29 05:12 20.68560 124.82246 34009 ft 454 kts 206°
2026-04-29 05:12 20.62902 124.79243 34012 ft 454 kts 206°
2026-04-29 05:13 20.57236 124.76235 34012 ft 454 kts 206°
2026-04-29 05:13 20.51597 124.73237 34011 ft 454 kts 206°
2026-04-29 05:14 20.45930 124.70224 34012 ft 454 kts 206°
2026-04-29 05:14 20.40275 124.67226 34010 ft 454 kts 206°
2026-04-29 05:15 20.34633 124.64246 34008 ft 454 kts 206°
2026-04-29 05:15 20.28955 124.61254 34004 ft 454 kts 206°
2026-04-29 05:16 20.23298 124.58270 34006 ft 454 kts 206°
2026-04-29 05:16 20.17668 124.55297 34007 ft 454 kts 206°
2026-04-29 05:17 20.12009 124.52311 34010 ft 454 kts 206°
2026-04-29 05:17 20.06340 124.49319 34012 ft 455 kts 206°
2026-04-29 05:18 20.00673 124.46338 34011 ft 454 kts 206°
2026-04-29 05:18 19.95003 124.43352 34014 ft 454 kts 206°
2026-04-29 05:19 19.89332 124.40373 34012 ft 454 kts 206°
2026-04-29 05:19 19.83668 124.37404 34011 ft 454 kts 206°
2026-04-29 05:20 19.78039 124.34454 34008 ft 454 kts 206°
2026-04-29 05:20 19.72377 124.31488 34008 ft 454 kts 206°
2026-04-29 05:21 19.66710 124.28516 34007 ft 454 kts 206°
2026-04-29 05:21 19.61050 124.25552 34008 ft 454 kts 206°
2026-04-29 05:22 19.55380 124.22584 34008 ft 454 kts 206°
2026-04-29 05:22 19.49708 124.19624 34009 ft 454 kts 206°
2026-04-29 05:23 19.44036 124.16663 34012 ft 454 kts 206°
2026-04-29 05:23 19.38407 124.13723 34011 ft 454 kts 206°
2026-04-29 05:24 19.32733 124.10767 34010 ft 454 kts 206°
2026-04-29 05:24 19.27060 124.07806 34011 ft 454 kts 206°
2026-04-29 05:25 19.21391 124.04855 34011 ft 454 kts 206°
2026-04-29 05:25 19.15720 124.01906 34009 ft 454 kts 206°
2026-04-29 05:26 19.10055 123.98961 34008 ft 454 kts 206°
2026-04-29 05:26 19.04377 123.96016 34009 ft 454 kts 206°
2026-04-29 05:27 18.98738 123.93098 34009 ft 454 kts 206°
2026-04-29 05:27 18.90231 123.88682 34009 ft 454 kts 206°
2026-04-29 05:28 18.84559 123.85738 34009 ft 454 kts 206°
2026-04-29 05:28 18.78883 123.82800 34010 ft 454 kts 206°
2026-04-29 05:29 18.73206 123.79862 34012 ft 454 kts 206°
2026-04-29 05:29 18.67530 123.76926 34013 ft 455 kts 206°
2026-04-29 05:30 18.61888 123.74014 34013 ft 455 kts 206°
2026-04-29 05:30 18.56198 123.71086 34014 ft 455 kts 206°
2026-04-29 05:31 18.50513 123.68155 34013 ft 455 kts 206°
2026-04-29 05:31 18.44831 123.65218 34019 ft 455 kts 206°
2026-04-29 05:32 18.39151 123.62292 34016 ft 455 kts 206°